FW3572 Weather Reports


time (UTC)temp
C
wind
direction
speed
KPH
gust
KPH
rain 1hr
cm
rain 24hr
cm
rain mn
cm
humidity
%
barometer
mb
20240222105050 10 336 1.6 8.0 0.00 0.00 0.00 69 1021.5
20240222104552 10 335 3.2 8.0 0.00 0.00 0.00 69 1021.4
20240222104050 10 332 3.2 9.7 0.00 0.00 0.00 69 1021.4
20240222103549 10 341 1.6 9.7 0.00 0.00 0.00 69 1021.4
20240222103106 10 301 3.2 8.0 0.00 0.00 0.00 69 1021.4
20240222102552 10 325 3.2 8.0 0.00 0.00 0.00 69 1021.3
20240222102049 10 336 3.2 8.0 0.00 0.00 0.00 69 1021.3
20240222101549 10 329 1.6 6.4 0.00 0.00 0.00 69 1021.2
20240222101052 10 329 1.6 6.4 0.00 0.00 0.00 69 1021.1
20240222100550 10 300 1.6 4.8 0.00 0.00 0.00 69 1021.2
20240222100050 10 315 1.6 6.4 0.00 0.00 0.00 69 1020.9
20240222095549 10 313 1.6 6.4 0.00 0.00 0.00 69 1020.8
20240222095047 10 311 1.6 6.4 0.00 0.00 0.00 69 1020.9
20240222094547 10 325 1.6 6.4 0.00 0.00 0.00 69 1021.0
20240222094047 10 355 1.6 8.0 0.00 0.00 0.00 68 1021.1
20240222093546 10 355 1.6 8.0 0.00 0.00 0.00 68 1021.0
20240222093046 10 327 1.6 8.0 0.00 0.00 0.00 68 1021.0
20240222092546 10 306 1.6 6.4 0.00 0.00 0.00 68 1021.0
20240222092049 10 329 1.6 6.4 0.00 0.00 0.00 68 1021.0
20240222091549 10 318 3.2 6.4 0.00 0.00 0.00 68 1021.1
20240222091045 10 317 1.6 4.8 0.00 0.00 0.00 68 1021.1
20240222090548 10 317 0.0 8.0 0.00 0.00 0.00 68 1021.1
20240222090046 10 340 1.6 6.4 0.00 0.00 0.00 68 1021.0
20240222085544 10 335 1.6 6.4 0.00 0.00 0.00 68 1021.1
20240222085043 10 338 0.0 4.8 0.00 0.00 0.00 68 1021.1
20240222084543 10 327 0.0 4.8 0.00 0.00 0.00 68 1021.1
20240222084043 10 322 0.0 3.2 0.00 0.00 0.00 68 1021.1
20240222083543 10 331 0.0 4.8 0.00 0.00 0.00 68 1021.1
20240222083044 10 337 0.0 4.8 0.00 0.00 0.00 68 1021.2
20240222082545 10 321 1.6 6.4 0.00 0.00 0.00 68 1021.2
20240222082045 10 333 1.6 6.4 0.00 0.00 0.00 68 1021.2
20240222081543 10 321 0.0 9.7 0.00 0.00 0.00 68 1021.1
20240222081041 10 346 3.2 9.7 0.00 0.00 0.00 68 1021.7
20240222080542 10 304 3.2 9.7 0.00 0.00 0.00 68 1021.2
20240222080041 10 304 3.2 9.7 0.00 0.00 0.00 68 1021.1
20240222075541 10 328 3.2 9.7 0.00 0.00 0.00 68 1021.3
20240222075040 10 333 1.6 8.0 0.00 0.00 0.00 68 1021.5
20240222074540 10 315 1.6 6.4 0.00 0.00 0.00 68 1021.4
20240222074039 10 307 1.6 8.0 0.00 0.00 0.00 68 1021.3
20240222073539 10 306 1.6 8.0 0.00 0.00 0.00 68 1021.2
20240222073038 10 323 1.6 8.0 0.00 0.00 0.00 68 1021.4
20240222072541 10 319 0.0 8.0 0.00 0.00 0.00 68 1021.4
20240222072038 10 340 3.2 8.0 0.00 0.00 0.00 68 1021.4
20240222071544 10 314 0.0 6.4 0.00 0.00 0.00 67 1021.3
20240222071037 10 328 0.0 8.0 0.00 0.00 0.00 67 1021.3
20240222070540 10 322 1.6 8.0 0.00 0.00 0.00 67 1021.4
20240222070035 10 309 1.6 6.4 0.00 0.00 0.00 67 1021.4
20240222065534 10 334 1.6 6.4 0.00 0.00 0.00 67 1021.6
20240222065036 10 305 1.6 6.4 0.00 0.00 0.00 67 1021.5
20240222064634 10 305 1.6 6.4 0.00 0.00 0.00 67 1021.6
20240222064032 11 322 1.6 8.0 0.00 0.00 0.00 67 1021.7
20240222063534 11 302 0.0 9.7 0.00 0.00 0.00 67 1021.8
20240222063030 11 313 1.6 9.7 0.00 0.00 0.00 67 1022.0
20240222062530 11 331 1.6 6.4 0.00 0.00 0.00 67 1022.0
20240222062030 11 338 1.6 8.0 0.00 0.00 0.00 67 1022.0
20240222061529 11 328 1.6 8.0 0.00 0.00 0.00 67 1022.2
20240222061028 11 331 1.6 6.4 0.00 0.00 0.00 67 1022.2
20240222060527 11 309 0.0 8.0 0.00 0.00 0.00 66 1022.3
20240222060027 11 323 1.6 9.7 0.00 0.00 0.00 66 1022.4
20240222055527 11 302 1.6 9.7 0.00 0.00 0.00 66 1022.3
20240222055026 11 355 1.6 9.7 0.00 0.00 0.00 66 1022.5
20240222054526 11 293 3.2 9.7 0.00 0.00 0.00 66 1022.5
20240222054025 11 321 3.2 9.7 0.00 0.00 0.00 66 1022.4
20240222053525 11 320 0.0 8.0 0.00 0.00 0.00 66 1022.4
20240222053024 11 273 1.6 9.7 0.00 0.00 0.00 66 1022.5
20240222052524 11 302 3.2 9.7 0.00 0.00 0.00 66 1022.5
20240222052024 11 314 1.6 9.7 0.00 0.00 0.00 66 1022.5
20240222051524 11 320 1.6 9.7 0.00 0.00 0.00 66 1022.5
20240222051024 11 297 1.6 6.4 0.00 0.00 0.00 65 1022.5
20240222050521 11 320 1.6 8.0 0.00 0.00 0.00 65 1022.6
20240222050035 11 298 1.6 8.0 0.00 0.00 0.00 65 1022.6
20240222045520 11 315 0.0 9.7 0.00 0.00 0.00 65 1022.7
20240222045019 11 309 1.6 9.7 0.00 0.00 0.00 65 1022.8
20240222044521 11 319 0.0 6.4 0.00 0.00 0.00 65 1022.8
20240222044018 11 309 1.6 6.4 0.00 0.00 0.00 65 1023.0
20240222043519 11 324 1.6 6.4 0.00 0.00 0.00 65 1023.1
20240222043018 11 332 1.6 8.0 0.00 0.00 0.00 65 1023.2
20240222042518 11 311 0.0 6.4 0.00 0.00 0.00 65 1023.2
20240222042019 11 326 1.6 6.4 0.00 0.00 0.00 65 1023.1
20240222041518 11 332 0.0 6.4 0.00 0.00 0.00 65 1023.3
20240222041017 11 334 0.0 6.4 0.00 0.00 0.00 65 1023.3
20240222040517 11 317 0.0 8.0 0.00 0.00 0.00 64 1023.5
20240222040017 12 320 1.6 8.0 0.00 0.00 0.00 64 1023.6
20240222035516 12 355 1.6 6.4 0.00 0.00 0.00 64 1023.7
20240222035016 12 337 0.0 6.4 0.00 0.00 0.00 64 1023.7
20240222034518 12 320 1.6 9.7 0.00 0.00 0.00 64 1023.9
20240222034017 12 327 1.6 9.7 0.00 0.00 0.00 64 1023.9
20240222033516 12 337 3.2 9.7 0.00 0.00 0.00 64 1023.9
20240222033023 12 325 1.6 9.7 0.00 0.00 0.00 64 1023.9
20240222032516 12 328 1.6 8.0 0.00 0.00 0.00 64 1024.0
20240222032018 12 307 3.2 12.9 0.00 0.00 0.00 64 1024.0
20240222031517 12 337 3.2 14.5 0.00 0.00 0.00 64 1024.0
20240222031015 12 339 3.2 14.5 0.00 0.00 0.00 64 1023.9
20240222030516 12 336 3.2 9.7 0.00 0.00 0.00 64 1024.0
20240222030017 12 355 3.2 9.7 0.00 0.00 0.00 64 1024.1
20240222025515 12 333 3.2 9.7 0.00 0.00 0.00 64 1024.1
20240222025014 12 316 0.0 6.4 0.00 0.00 0.00 64 1024.1
20240222024514 12 301 0.0 6.4 0.00 0.00 0.00 63 1024.0
20240222024014 12 343 0.0 8.0 0.00 0.00 0.00 63 1024.2
20240222023513 12 311 1.6 12.9 0.00 0.00 0.00 63 1024.1
20240222023018 12 309 1.6 8.0 0.00 0.00 0.00 63 1024.1
20240222022514 12 302 3.2 9.7 0.00 0.00 0.00 63 1024.2
20240222022016 12 343 1.6 9.7 0.00 0.00 0.00 63 1024.2
20240222021513 12 320 3.2 6.4 0.00 0.00 0.00 63 1024.1
20240222021012 12 325 3.2 8.0 0.00 0.00 0.00 63 1024.1
20240222020512 13 298 3.2 8.0 0.00 0.00 0.00 63 1024.1
20240222020013 13 297 1.6 8.0 0.00 0.00 0.00 62 1024.0
20240222015512 13 308 1.6 8.0 0.00 0.00 0.00 62 1023.9
20240222015014 13 334 3.2 8.0 0.00 0.00 0.00 62 1024.0
20240222014511 13 334 3.2 12.9 0.00 0.00 0.00 62 1023.9
20240222014012 13 344 3.2 12.9 0.00 0.00 0.00 62 1024.0
20240222013511 13 331 3.2 8.0 0.00 0.00 0.00 62 1024.0
20240222013011 13 320 1.6 9.7 0.00 0.00 0.00 61 1024.0
20240222012511 13 297 3.2 9.7 0.00 0.00 0.00 62 1023.9
20240222012011 13 325 3.2 9.7 0.00 0.00 0.00 61 1023.9
20240222011532 14 311 3.2 12.9 0.00 0.00 0.00 61 1023.8
20240222011010 14 5 1.6 12.9 0.00 0.00 0.00 61 1023.8
20240222010511 14 355 3.2 9.7 0.00 0.00 0.00 61 1023.6
20240222010014 14 338 1.6 8.0 0.00 0.00 0.00 61 1023.5
20240222005509 14 340 1.6 14.5 0.00 0.00 0.00 61 1023.5
20240222005011 14 15 3.2 14.5 0.00 0.00 0.00 60 1023.5
20240222004510 14 342 1.6 14.5 0.00 0.00 0.00 60 1023.4
20240222004010 14 349 3.2 14.5 0.00 0.00 0.00 60 1023.4
20240222003508 15 360 4.8 14.5 0.00 0.00 0.00 60 1023.5
20240222003009 15 304 1.6 16.1 0.00 0.00 0.00 59 1023.6
20240222002509 15 302 3.2 16.1 0.00 0.00 0.00 59 1023.6
20240222002009 15 355 3.2 14.5 0.00 0.00 0.00 59 1023.7
20240222001509 15 342 4.8 16.1 0.00 0.00 0.00 59 1023.6
20240222001009 15 288 4.8 16.1 0.00 0.00 0.00 58 1023.7
20240222000508 15 351 1.6 19.3 0.00 0.00 0.00 58 1023.7
20240222000008 15 13 4.8 19.3 0.00 0.00 0.00 57 1023.7
20240221235507 15 350 4.8 19.3 0.00 0.00 0.00 57 1023.7
20240221235007 15 360 3.2 19.3 0.00 0.00 0.00 57 1023.6
20240221234515 15 325 3.2 19.3 0.00 0.00 0.00 56 1023.7
20240221234007 15 15 6.4 19.3 0.00 0.00 0.00 56 1023.6
20240221233507 15 360 4.8 20.9 0.00 0.00 0.00 55 1023.6
20240221233009 15 5 9.7 22.5 0.00 0.00 0.00 55 1023.6
20240221232507 16 310 6.4 22.5 0.00 0.00 0.00 54 1023.7
20240221232006 16 306 6.4 24.1 0.00 0.00 0.00 52 1023.6
20240221231506 16 289 6.4 24.1 0.00 0.00 0.00 52 1023.6
20240221231009 16 347 9.7 24.1 0.00 0.00 0.00 51 1023.6
20240221230506 16 316 4.8 27.4 0.00 0.00 0.00 51 1023.6
20240221230006 16 304 11.3 25.7 0.00 0.00 0.00 50 1023.5
20240221225505 16 37 9.7 25.7 0.00 0.00 0.00 49 1023.5
20240221225006 16 355 6.4 20.9 0.00 0.00 0.00 49 1023.4
20240221224507 17 17 8.0 25.7 0.00 0.00 0.00 48 1023.5
20240221224005 17 5 9.7 25.7 0.00 0.00 0.00 48 1023.4
20240221223505 17 296 9.7 29.0 0.00 0.00 0.00 47 1023.3
20240221223005 17 360 16.1 29.0 0.00 0.00 0.00 46 1023.2
20240221222504 17 346 11.3 29.0 0.00 0.00 0.00 47 1023.3
20240221222005 17 329 9.7 29.0 0.00 0.00 0.00 46 1023.3
20240221221505 18 300 9.7 22.5 0.00 0.00 0.00 47 1023.3
20240221221004 18 42 9.7 32.2 0.00 0.00 0.00 46 1023.1
20240221220504 18 309 14.5 32.2 0.00 0.00 0.00 46 1023.2
20240221220004 18 5 6.4 32.2 0.00 0.00 0.00 46 1023.1
20240221215503 18 53 9.7 27.4 0.00 0.00 0.00 45 1023.0
20240221215003 18 360 11.3 27.4 0.00 0.00 0.00 45 1023.0
20240221214605 18 326 8.0 27.4 0.00 0.00 0.00 45 1022.9
20240221214002 18 334 8.0 30.6 0.00 0.00 0.00 44 1023.0
20240221213503 19 32 11.3 35.4 0.00 0.00 0.00 44 1022.9
20240221213004 19 330 14.5 35.4 0.00 0.00 0.00 44 1023.0
20240221212502 20 5 6.4 24.1 0.00 0.00 0.00 44 1023.0
20240221212002 19 337 12.9 24.1 0.00 0.00 0.00 42 1022.9
20240221211502 20 267 11.3 30.6 0.00 0.00 0.00 41 1023.0
20240221211001 19 360 9.7 30.6 0.00 0.00 0.00 41 1023.0
20240221210501 20 277 11.3 29.0 0.00 0.00 0.00 40 1022.9
20240221210012 20 51 11.3 27.4 0.00 0.00 0.00 41 1023.0
20240221205501 20 170 16.1 27.4 0.00 0.00 0.00 39 1023.0
20240221205101 20 294 11.3 29.0 0.00 0.00 0.00 41 1022.9
20240221205001 20 355 11.3 29.0 0.00 0.00 0.00 41 1022.9
20240221204604 20 360 9.7 29.0 0.00 0.00 0.00 41 1022.9
20240221204059 20 360 12.9 27.4 0.00 0.00 0.00 41 1023.0
20240221203603 20 340 8.0 19.3 0.00 0.00 0.00 40 1023.0
20240221203104 20 22 6.4 27.4 0.00 0.00 0.00 42 1022.9
20240221202559 20 360 9.7 29.0 0.00 0.00 0.00 42 1023.0
20240221202103 20 355 14.5 29.0 0.00 0.00 0.00 42 1023.1
20240221201559 20 343 9.7 29.0 0.00 0.00 0.00 41 1022.9
20240221201503 20 281 9.7 29.0 0.00 0.00 0.00 42 1022.9
20240221201059 20 64 12.9 29.0 0.00 0.00 0.00 42 1022.9
20240221200558 20 302 6.4 29.0 0.00 0.00 0.00 42 1022.9
20240221200059 20 334 8.0 25.7 0.00 0.00 0.00 42 1023.0
20240221195557 20 326 8.0 29.0 0.00 0.00 0.00 42 1023.0
20240221195057 20 351 14.5 29.0 0.00 0.00 0.00 42 1023.1
20240221194556 20 338 11.3 25.7 0.00 0.00 0.00 42 1023.1
20240221194057 20 49 9.7 29.0 0.00 0.00 0.00 41 1023.1
20240221193555 20 360 11.3 29.0 0.00 0.00 0.00 42 1023.1
20240221193056 20 350 8.0 30.6 0.00 0.00 0.00 41 1023.2
20240221192554 20 307 12.9 30.6 0.00 0.00 0.00 40 1023.2
20240221192054 20 249 14.5 27.4 0.00 0.00 0.00 41 1023.2
20240221191554 20 275 9.7 30.6 0.00 0.00 0.00 40 1023.3
20240221191053 21 341 12.9 27.4 0.00 0.00 0.00 39 1023.4
20240221190552 21 355 6.4 29.0 0.00 0.00 0.00 40 1023.4
20240221190053 20 266 14.5 33.8 0.00 0.00 0.00 40 1023.4
20240221185551 20 34 17.7 32.2 0.00 0.00 0.00 40 1023.4
20240221185053 20 114 11.3 30.6 0.00 0.00 0.00 41 1023.4
20240221184551 20 44 16.1 30.6 0.00 0.00 0.00 40 1023.5
20240221184051 20 68 9.7 27.4 0.00 0.00 0.00 41 1023.5
20240221183550 20 304 9.7 29.0 0.00 0.00 0.00 41 1023.6
20240221183051 20 308 14.5 27.4 0.00 0.00 0.00 40 1023.6
20240221182550 20 214 9.7 32.2 0.00 0.00 0.00 41 1023.6
20240221182054 20 321 12.9 29.0 0.00 0.00 0.00 42 1023.7
20240221181550 20 322 16.1 29.0 0.00 0.00 0.00 41 1023.8
20240221181050 20 14 11.3 30.6 0.00 0.00 0.00 41 1023.9
20240221180553 20 350 9.7 27.4 0.00 0.00 0.00 41 1023.9
20240221180101 20 53 9.7 29.0 0.00 0.00 0.00 42 1024.1
20240221175548 20 348 14.5 29.0 0.00 0.00 0.00 41 1024.2
20240221175148 21 360 11.3 25.7 0.00 0.00 0.00 41 1024.3
20240221174549 20 11 12.9 25.7 0.00 0.00 0.00 42 1024.3
20240221174047 20 80 12.9 30.6 0.00 0.00 0.00 42 1024.4
20240221173548 20 32 11.3 30.6 0.00 0.00 0.00 42 1024.5
20240221173059 20 319 9.7 30.6 0.00 0.00 0.00 43 1024.6
20240221172547 20 324 8.0 25.7 0.00 0.00 0.00 43 1024.7
20240221172049 20 157 11.3 25.7 0.00 0.00 0.00 43 1024.7
20240221171546 20 293 11.3 25.7 0.00 0.00 0.00 42 1024.8
20240221171045 20 338 12.9 27.4 0.00 0.00 0.00 42 1024.9
20240221170543 20 350 11.3 27.4 0.00 0.00 0.00 43 1024.9
20240221170058 20 34 11.3 27.4 0.00 0.00 0.00 42 1025.0
20240221165542 20 323 4.8 29.0 0.00 0.00 0.00 43 1025.1
20240221165042 20 343 14.5 27.4 0.00 0.00 0.00 42 1025.1
20240221164542 20 325 11.3 29.0 0.00 0.00 0.00 42 1025.2
20240221164043 19 344 11.3 29.0 0.00 0.00 0.00 42 1025.3
20240221163541 19 350 11.3 27.4 0.00 0.00 0.00 42 1025.3
20240221163041 19 5 14.5 27.4 0.00 0.00 0.00 42 1025.4
20240221162542 19 340 12.9 25.7 0.00 0.00 0.00 41 1025.4
20240221162043 19 49 12.9 25.7 0.00 0.00 0.00 42 1025.6
20240221161540 19 290 8.0 25.7 0.00 0.00 0.00 42 1025.5
20240221161039 19 339 8.0 24.1 0.00 0.00 0.00 42 1025.5
20240221160539 19 326 9.7 24.1 0.00 0.00 0.00 42 1025.7
20240221160043 19 360 8.0 20.9 0.00 0.00 0.00 42 1025.7
20240221155638 19 15 3.2 30.6 0.00 0.00 0.00 43 1025.7
20240221155037 18 349 8.0 30.6 0.00 0.00 0.00 44 1025.7
20240221154540 18 351 8.0 30.6 0.00 0.00 0.00 44 1025.6
20240221154035 18 345 12.9 32.2 0.00 0.00 0.00 44 1025.7
20240221153536 18 15 11.3 32.2 0.00 0.00 0.00 43 1025.6
20240221153042 18 333 14.5 29.0 0.00 0.00 0.00 44 1025.7
20240221152535 18 323 11.3 32.2 0.00 0.00 0.00 44 1025.6
20240221152033 18 325 16.1 32.2 0.00 0.00 0.00 43 1025.6
20240221151533 18 341 14.5 29.0 0.00 0.00 0.00 44 1025.6
20240221151031 18 360 9.7 32.2 0.00 0.00 0.00 44 1025.6
20240221150531 18 342 11.3 32.2 0.00 0.00 0.00 44 1025.7
20240221150030 17 355 16.1 24.1 0.00 0.00 0.00 44 1025.7
20240221145529 17 5 8.0 20.9 0.00 0.00 0.00 45 1025.6
20240221145028 17 19 9.7 20.9 0.00 0.00 0.00 46 1025.7
20240221144531 17 326 11.3 22.5 0.00 0.00 0.00 46 1025.7
20240221144026 17 343 11.3 22.5 0.00 0.00 0.00 47 1025.8
20240221143527 17 321 9.7 22.5 0.00 0.00 0.00 48 1025.7
20240221143031 16 299 9.7 22.5 0.00 0.00 0.00 49 1025.8
20240221142525 16 342 3.2 20.9 0.00 0.00 0.00 51 1025.8
20240221142021 16 331 3.2 16.1 0.00 0.00 0.00 54 1025.8
20240221141520 16 282 6.4 17.7 0.00 0.00 0.00 54 1025.8
20240221141019 15 315 4.8 17.7 0.00 0.00 0.00 56 1025.7
20240221140519 15 336 4.8 16.1 0.00 0.00 0.00 57 1025.8
20240221140016 14 345 6.4 16.1 0.00 0.00 0.00 58 1025.7
20240221135515 14 311 4.8 19.3 0.00 0.00 0.00 59 1025.6
20240221135014 13 296 6.4 19.3 0.00 0.00 0.00 60 1025.6
20240221134512 13 329 6.4 12.9 0.00 0.00 0.00 60 1025.6
20240221134011 13 323 6.4 14.5 0.00 0.00 0.00 61 1025.6
20240221133512 13 323 4.8 16.1 0.00 0.00 0.00 61 1025.6
20240221133013 13 313 4.8 16.1 0.00 0.00 0.00 61 1025.7
20240221132509 12 350 3.2 12.9 0.00 0.00 0.00 62 1025.6
20240221132006 12 301 4.8 14.5 0.00 0.00 0.00 63 1025.6
20240221131506 12 323 4.8 14.5 0.00 0.00 0.00 63 1025.6
20240221131005 12 324 4.8 14.5 0.00 0.00 0.00 63 1025.5
20240221130504 11 305 3.2 9.7 0.00 0.00 0.00 64 1025.4
20240221130003 11 286 3.2 9.7 0.00 0.00 0.00 64 1025.3
20240221125502 11 324 1.6 9.7 0.00 0.00 0.00 64 1025.3
20240221125002 11 324 3.2 9.7 0.00 0.00 0.00 64 1025.3
20240221124502 10 334 3.2 9.7 0.00 0.00 0.00 65 1025.3
20240221124002 10 333 1.6 9.7 0.00 0.00 0.00 65 1025.2
20240221123600 10 314 3.2 8.0 0.00 0.00 0.00 66 1025.1
20240221123100 10 304 1.6 12.9 0.00 0.00 0.00 66 1025.1
20240221122601 10 299 3.2 12.9 0.00 0.00 0.00 67 1025.1
20240221122501 10 308 1.6 8.0 0.00 0.00 0.00 67 1025.0
20240221122059 10 300 3.2 8.0 0.00 0.00 0.00 67 1025.0
20240221121658 9 299 3.2 8.0 0.00 0.00 0.00 67 1024.9
20240221121058 9 312 1.6 8.0 0.00 0.00 0.00 68 1024.8
20240221120558 9 310 3.2 8.0 0.00 0.00 0.00 68 1024.8
20240221120057 9 312 1.6 9.7 0.00 0.00 0.00 68 1024.8
20240221115557 9 330 3.2 9.7 0.00 0.00 0.00 68 1024.7
20240221115058 9 313 1.6 8.0 0.00 0.00 0.00 68 1024.7
20240221114607 9 315 1.6 8.0 0.00 0.00 0.00 69 1024.7
20240221114056 9 305 0.0 4.8 0.00 0.00 0.00 68 1024.6
20240221113555 9 326 0.0 4.8 0.00 0.00 0.00 69 1024.5
20240221113056 9 302 0.0 4.8 0.00 0.00 0.00 69 1024.5
20240221112555 9 323 0.0 3.2 0.00 0.00 0.00 69 1024.3
20240221112055 9 326 0.0 4.8 0.00 0.00 0.00 69 1024.3
20240221111557 9 313 0.0 3.2 0.00 0.00 0.00 69 1024.3
20240221111054 9 321 0.0 4.8 0.00 0.00 0.00 69 1024.2
20240221110555 9 331 0.0 4.8 0.00 0.00 0.00 69 1024.1
20240221110056 9 313 0.0 4.8 0.00 0.00 0.00 69 1024.1
20240221105553 9 315 0.0 4.8 0.00 0.00 0.00 69 1023.9